Hourly Weather Barnim

Today, 21 April, Wednesday

Time Temperature Precipitation Wind Pressure Humidity
00:00 +6°C° 0 mm 2 mps 757 mmHg 80%
01:00 +5°C° 0 mm 2 mps 757 mmHg 78%
02:00 +5°C° 0 mm 2 mps 757 mmHg 79%
03:00 +4°C° 0 mm 2 mps 757 mmHg 79%
04:00 +4°C° 0 mm 2 mps 756 mmHg 80%
05:00 +5°C° 0 mm 2 mps 756 mmHg 76%
06:00 +6°C° 0 mm 2 mps 757 mmHg 72%
07:00 +8°C° 0 mm 2 mps 757 mmHg 68%
08:00 +9°C° 0 mm 2 mps 757 mmHg 63%
09:00 +11°C° 0 mm 3 mps 756 mmHg 57%
10:00 +13°C° 0 mm 3 mps 756 mmHg 52%
11:00 +14°C° 0 mm 4 mps 756 mmHg 49%
12:00 +15°C° 0 mm 4 mps 756 mmHg 47%
13:00 +15°C° 0 mm 5 mps 756 mmHg 45%
14:00 +15°C° 0 mm 5 mps 755 mmHg 49%
15:00 +14°C° 0 mm 5 mps 755 mmHg 53%
16:00 +13°C° 0 mm 5 mps 755 mmHg 57%
17:00 +10°C° 0.1 mm 5 mps 755 mmHg 62%
18:00 +8°C° 0.1 mm 5 mps 756 mmHg 68%
19:00 +6°C° 0.1 mm 5 mps 756 mmHg 73%
20:00 +5°C° 0 mm 5 mps 756 mmHg 71%
21:00 +3°C° 0 mm 5 mps 756 mmHg 69%
22:00 +2°C° 0 mm 5 mps 757 mmHg 67%
23:00 +1°C° 0 mm 5 mps 757 mmHg 69%

Tomorrow, 22 April, Thursday

Time Temperature Precipitation Wind Pressure Humidity
00:00 +1°C° 0 mm 6 mps 757 mmHg 71%
01:00 -1°C° 0 mm 6 mps 757 mmHg 72%
02:00 +1°C° 0 mm 6 mps 757 mmHg 72%
03:00 +1°C° 0 mm 6 mps 756 mmHg 71%
04:00 0°C° 0 mm 7 mps 756 mmHg 71%
05:00 +2°C° 0 mm 7 mps 757 mmHg 71%
06:00 +2°C° 0 mm 7 mps 757 mmHg 72%
07:00 +2°C° 0 mm 7 mps 757 mmHg 72%
08:00 +4°C° 0.1 mm 7 mps 757 mmHg 67%
09:00 +5°C° 0.1 mm 7 mps 757 mmHg 62%
10:00 +6°C° 0.1 mm 8 mps 757 mmHg 56%
11:00 +6°C° 0.2 mm 8 mps 757 mmHg 52%
12:00 +7°C° 0.2 mm 8 mps 757 mmHg 49%
13:00 +9°C° 0.2 mm 8 mps 757 mmHg 45%
14:00 +8°C° 0.1 mm 7 mps 758 mmHg 47%
15:00 +8°C° 0.1 mm 7 mps 758 mmHg 49%
16:00 +8°C° 0.1 mm 7 mps 758 mmHg 51%
17:00 +7°C° 0 mm 6 mps 758 mmHg 53%
18:00 +5°C° 0 mm 5 mps 759 mmHg 55%
19:00 +4°C° 0 mm 4 mps 759 mmHg 57%
20:00 +3°C° 0 mm 4 mps 760 mmHg 62%
21:00 +2°C° 0 mm 3 mps 760 mmHg 66%
22:00 +1°C° 0 mm 3 mps 760 mmHg 71%
23:00 0°C° 0 mm 4 mps 760 mmHg 76%

Day after tomorrow, 23 April, Friday

Time Temperature Precipitation Wind Pressure Humidity
00:00 0°C° 0 mm 4 mps 760 mmHg 81%
01:00 0°C° 0 mm 5 mps 760 mmHg 86%
02:00 0°C° 0 mm 5 mps 760 mmHg 88%
03:00 0°C° 0 mm 5 mps 760 mmHg 90%
04:00 0°C° 0 mm 5 mps 760 mmHg 92%
05:00 0°C° 0.1 mm 5 mps 760 mmHg 89%
06:00 +1°C° 0.1 mm 5 mps 761 mmHg 86%
07:00 +2°C° 0.1 mm 5 mps 761 mmHg 82%
08:00 +3°C° 0.1 mm 6 mps 761 mmHg 71%
09:00 +5°C° 0.1 mm 6 mps 761 mmHg 60%
10:00 +7°C° 0.1 mm 6 mps 762 mmHg 49%
11:00 +8°C° 0.1 mm 7 mps 762 mmHg 45%
12:00 +7°C° 0.1 mm 8 mps 762 mmHg 41%
13:00 +7°C° 0.1 mm 9 mps 763 mmHg 38%
14:00 +7°C° 0 mm 9 mps 763 mmHg 39%
15:00 +7°C° 0 mm 8 mps 764 mmHg 40%
16:00 +6°C° 0 mm 8 mps 764 mmHg 41%
17:00 +5°C° 0 mm 6 mps 764 mmHg 44%
18:00 +5°C° 0 mm 5 mps 764 mmHg 46%
19:00 +4°C° 0 mm 4 mps 765 mmHg 49%
20:00 +3°C° 0 mm 4 mps 765 mmHg 53%
21:00 +2°C° 0 mm 3 mps 765 mmHg 58%
22:00 +1°C° 0 mm 3 mps 765 mmHg 62%
23:00 0°C° 0 mm 3 mps 765 mmHg 63%

24 April, Saturday

Time Temperature Precipitation Wind Pressure Humidity
00:00 0°C° 0 mm 3 mps 765 mmHg 65%
01:00 0°C° 0 mm 3 mps 765 mmHg 66%
02:00 0°C° 0 mm 3 mps 765 mmHg 74%
03:00 0°C° 0 mm 3 mps 764 mmHg 82%
04:00 0°C° 0 mm 3 mps 764 mmHg 90%
05:00 +1°C° 0 mm 3 mps 764 mmHg 89%
06:00 +1°C° 0 mm 4 mps 764 mmHg 87%
07:00 +3°C° 0 mm 4 mps 764 mmHg 86%
08:00 +4°C° 0.1 mm 4 mps 764 mmHg 78%
09:00 +5°C° 0.1 mm 4 mps 764 mmHg 70%
10:00 +7°C° 0.1 mm 4 mps 764 mmHg 62%
11:00 +7°C° 0.4 mm 5 mps 764 mmHg 62%
12:00 +7°C° 0.4 mm 5 mps 764 mmHg 63%
13:00 +7°C° 0.4 mm 6 mps 764 mmHg 64%
14:00 +7°C° 0.1 mm 6 mps 764 mmHg 56%
15:00 +6°C° 0.1 mm 7 mps 765 mmHg 48%
16:00 +6°C° 0.1 mm 7 mps 765 mmHg 39%
17:00 +4°C° 0 mm 6 mps 765 mmHg 44%
18:00 +3°C° 0 mm 5 mps 765 mmHg 48%
19:00 +3°C° 0 mm 4 mps 765 mmHg 53%
20:00 +2°C° 0 mm 3 mps 766 mmHg 58%
21:00 +1°C° 0 mm 3 mps 766 mmHg 62%
22:00 0°C° 0 mm 3 mps 766 mmHg 67%
23:00 -1°C° 0 mm 3 mps 766 mmHg 71%

25 April, Sunday

Time Temperature Precipitation Wind Pressure Humidity
00:00 -1°C° 0 mm 3 mps 766 mmHg 75%
01:00 -1°C° 0 mm 3 mps 766 mmHg 78%
02:00 -1°C° 0 mm 3 mps 766 mmHg 80%
03:00 -1°C° 0 mm 3 mps 766 mmHg 81%
04:00 -1°C° 0 mm 3 mps 766 mmHg 82%
05:00 -1°C° 0 mm 4 mps 766 mmHg 77%
06:00 +1°C° 0 mm 4 mps 766 mmHg 71%
07:00 +3°C° 0 mm 4 mps 766 mmHg 66%
08:00 +5°C° 0 mm 5 mps 766 mmHg 57%
09:00 +5°C° 0 mm 6 mps 766 mmHg 49%
10:00 +7°C° 0 mm 6 mps 766 mmHg 40%
11:00 +8°C° 0 mm 7 mps 765 mmHg 41%
12:00 +8°C° 0 mm 7 mps 765 mmHg 43%
13:00 +7°C° 0 mm 8 mps 765 mmHg 44%
14:00 +8°C° 0.1 mm 7 mps 765 mmHg 44%
15:00 +8°C° 0.1 mm 7 mps 765 mmHg 45%
16:00 +6°C° 0.1 mm 7 mps 765 mmHg 46%
17:00 +5°C° 0 mm 6 mps 765 mmHg 49%
18:00 +4°C° 0 mm 4 mps 765 mmHg 53%
19:00 +3°C° 0 mm 3 mps 765 mmHg 57%
20:00 +2°C° 0 mm 3 mps 765 mmHg 60%
21:00 +1°C° 0 mm 3 mps 765 mmHg 64%
22:00 +1°C° 0 mm 2 mps 765 mmHg 67%
23:00 0°C° 0 mm 3 mps 765 mmHg 71%

26 April, Monday

Time Temperature Precipitation Wind Pressure Humidity
00:00 -1°C° 0 mm 3 mps 765 mmHg 75%
01:00 -1°C° 0 mm 3 mps 765 mmHg 79%
02:00 -1°C° 0 mm 3 mps 765 mmHg 82%
03:00 -2°C° 0 mm 3 mps 764 mmHg 85%
04:00 -2°C° 0 mm 3 mps 764 mmHg 87%
05:00 0°C° 0 mm 3 mps 764 mmHg 82%
06:00 +2°C° 0 mm 3 mps 764 mmHg 76%
07:00 +4°C° 0 mm 3 mps 765 mmHg 70%
08:00 +5°C° 0 mm 3 mps 764 mmHg 61%
09:00 +8°C° 0 mm 3 mps 764 mmHg 52%
10:00 +10°C° 0 mm 3 mps 764 mmHg 44%
11:00 +10°C° 0 mm 3 mps 764 mmHg 42%
12:00 +11°C° 0 mm 3 mps 763 mmHg 40%
13:00 +13°C° 0 mm 2 mps 763 mmHg 39%
14:00 +13°C° 0 mm 2 mps 762 mmHg 39%
15:00 +13°C° 0 mm 2 mps 762 mmHg 39%
16:00 +13°C° 0 mm 2 mps 762 mmHg 39%
17:00 +10°C° 0 mm 2 mps 761 mmHg 46%
18:00 +8°C° 0 mm 2 mps 761 mmHg 53%
19:00 +7°C° 0 mm 2 mps 760 mmHg 60%
20:00 +6°C° 0 mm 2 mps 760 mmHg 61%
21:00 +4°C° 0 mm 3 mps 760 mmHg 62%
22:00 +3°C° 0 mm 3 mps 760 mmHg 63%
23:00 +2°C° 0 mm 3 mps 759 mmHg 64%
Show more